GW7219 Weather Reports


time (UTC)temp
C
wind
direction
speed
KPH
gust
KPH
rain 1hr
cm
rain 24hr
cm
rain mn
cm
humidity
%
barometer
mb
20260502205616 21 265 3.2 9.7 0.00 0.00 0.00 24 1016.1
20260502204616 20 278 0.0 3.2 0.00 0.00 0.00 23 1016.3
20260502203618 20 293 1.6 4.8 0.00 0.00 0.00 24 1016.3
20260502202616 21 276 3.2 8.0 0.00 0.00 0.00 23 1016.5
20260502201617 21 272 3.2 6.4 0.00 0.00 0.00 22 1016.4
20260502200621 22 263 1.6 3.2 0.00 0.00 0.00 25 1016.5
20260502195616 21 263 3.2 4.8 0.00 0.00 0.00 23 1016.6
20260502194616 21 287 3.2 11.3 0.00 0.00 0.00 23 1016.7
20260502193616 21 257 1.6 4.8 0.00 0.00 0.00 24 1016.9
20260502192616 20 263 4.8 11.3 0.00 0.00 0.00 25 1017.0
20260502191618 20 275 1.6 11.3 0.00 0.00 0.00 22 1017.2
20260502190616 20 246 3.2 6.4 0.00 0.00 0.00 24 1017.4
20260502185656 19 283 3.2 4.8 0.00 0.00 0.00 26 1017.5
20260502184636 19 281 1.6 9.7 0.00 0.00 0.00 23 1017.6
20260502183615 18 265 6.4 11.3 0.00 0.00 0.00 27 1017.7
20260502182615 18 30 3.2 4.8 0.00 0.00 0.00 30 1017.8
20260502181636 18 263 1.6 4.8 0.00 0.00 0.00 25 1017.9
20260502180617 18 268 4.8 12.9 0.00 0.00 0.00 24 1018.0
20260502163616 16 267 1.6 3.2 0.00 0.00 0.00 28 1018.4
20260502162621 16 269 1.6 3.2 0.00 0.00 0.00 29 1018.5
20260502161616 15 51 1.6 4.8 0.00 0.00 0.00 32 1018.5
20260502160616 15 263 1.6 3.2 0.00 0.00 0.00 31 1018.5
20260502151617 13 0.0 0.0 0.00 0.00 0.00 40 1018.7
20260502150617 12 0.0 0.0 0.00 0.00 0.00 44 1018.9
20260502130618 0 117 0.0 1.6 0.00 0.00 0.00 72 1018.8
20260502123617 0 0.0 0.0 0.00 0.00 0.00 68 1018.5
20260502122637 1 0.0 0.0 0.00 0.00 0.00 66 1018.6
20260502121617 2 0.0 0.0 0.00 0.00 0.00 61 1018.5
20260502120618 1 105 0.0 1.6 0.00 0.00 0.00 64 1018.5
20260502115617 1 0.0 1.6 0.00 0.00 0.00 63 1018.5
20260502114617 1 101 0.0 1.6 0.00 0.00 0.00 65 1018.4
20260502113617 1 117 0.0 1.6 0.00 0.00 0.00 68 1018.4
20260502112618 2 0.0 0.0 0.00 0.00 0.00 63 1018.5
20260502111618 3 0.0 0.0 0.00 0.00 0.00 55 1018.5
20260502110637 2 91 1.6 3.2 0.00 0.00 0.00 59 1018.5
20260502105617 2 104 0.0 1.6 0.00 0.00 0.00 60 1018.5
20260502104617 2 0.0 1.6 0.00 0.00 0.00 63 1018.4
20260502103618 2 0.0 1.6 0.00 0.00 0.00 58 1018.3
20260502102637 3 0.0 0.0 0.00 0.00 0.00 56 1018.3
20260502101637 3 76 1.6 3.2 0.00 0.00 0.00 53 1018.2
20260502100637 5 83 1.6 3.2 0.00 0.00 0.00 50 1018.3
20260502090617 3 0.0 0.0 0.00 0.00 0.00 57 1018.3
20260502070617 4 0.0 0.0 0.00 0.00 0.00 55 1017.9
20260502065616 5 0.0 0.0 0.00 0.00 0.00 53 1017.9
20260502064617 6 0.0 0.0 0.00 0.00 0.00 50 1017.9
20260502063617 6 91 1.6 1.6 0.00 0.00 0.00 48 1017.7
20260502062616 6 101 0.0 1.6 0.00 0.00 0.00 50 1017.7
20260502061636 6 0.0 1.6 0.00 0.00 0.00 48 1017.8
20260502060616 6 101 1.6 3.2 0.00 0.00 0.00 47 1017.7
20260502055617 7 77 0.0 1.6 0.00 0.00 0.00 45 1017.7
20260502054637 6 117 0.0 3.2 0.00 0.00 0.00 47 1017.8
20260502053617 6 100 1.6 3.2 0.00 0.00 0.00 47 1017.7
20260502052617 6 51 0.0 3.2 0.00 0.00 0.00 47 1017.8
20260502051618 7 58 1.6 4.8 0.00 0.00 0.00 45 1017.9
20260502050617 6 84 1.6 4.8 0.00 0.00 0.00 47 1017.8
20260502045616 7 49 1.6 3.2 0.00 0.00 0.00 46 1017.8
20260502044617 7 68 0.0 3.2 0.00 0.00 0.00 45 1017.9
20260502043617 7 56 3.2 4.8 0.00 0.00 0.00 44 1017.9
20260502042616 7 54 3.2 6.4 0.00 0.00 0.00 44 1017.9
20260502041617 7 75 3.2 8.0 0.00 0.00 0.00 45 1018.0
20260502040617 8 86 3.2 4.8 0.00 0.00 0.00 44 1018.0
20260502035636 8 79 3.2 6.4 0.00 0.00 0.00 40 1017.9
20260502034616 8 82 3.2 8.0 0.00 0.00 0.00 41 1017.9
20260502033617 8 65 3.2 4.8 0.00 0.00 0.00 40 1017.8
20260502032636 9 77 3.2 6.4 0.00 0.00 0.00 41 1017.8
20260502031616 9 67 3.2 8.0 0.00 0.00 0.00 39 1017.7
20260502030616 10 60 4.8 9.7 0.00 0.00 0.00 39 1017.6
20260502025617 11 99 0.0 1.6 0.00 0.00 0.00 34 1017.4
20260502024616 12 0.0 0.0 0.00 0.00 0.00 32 1017.3
20260502023616 13 80 0.0 1.6 0.00 0.00 0.00 29 1017.2
20260502022622 15 64 0.0 1.6 0.00 0.00 0.00 25 1017.2
20260502021616 16 64 0.0 1.6 0.00 0.00 0.00 23 1017.2
20260502020616 17 60 0.0 1.6 0.00 0.00 0.00 19 1017.2
20260502015638 18 61 0.0 1.6 0.00 0.00 0.00 17 1017.2
20260502014616 18 60 1.6 1.6 0.00 0.00 0.00 16 1017.2
20260502013636 19 32 1.6 1.6 0.00 0.00 0.00 16 1017.2
20260502012616 19 0.0 0.0 0.00 0.00 0.00 18 1017.4
20260502011618 18 59 0.0 1.6 0.00 0.00 0.00 18 1017.4
20260502010616 20 46 0.0 1.6 0.00 0.00 0.00 18 1017.4
20260502005617 20 20 0.0 1.6 0.00 0.00 0.00 19 1017.4
20260502004621 20 40 1.6 3.2 0.00 0.00 0.00 17 1017.6
20260502003616 20 304 0.0 1.6 0.00 0.00 0.00 22 1017.5
20260502002616 20 0.0 3.2 0.00 0.00 0.00 19 1017.6
20260502001616 20 275 1.6 3.2 0.00 0.00 0.00 16 1017.7
20260502000657 20 15 1.6 3.2 0.00 0.00 0.00 17 1017.6
20260501235617 21 277 1.6 3.2 0.00 0.00 0.00 17 1017.7
20260501234616 21 259 0.0 3.2 0.00 0.00 0.00 17 1017.6
20260501233616 21 302 0.0 1.6 0.00 0.00 0.00 24 1017.8
20260501232617 20 258 3.2 4.8 0.00 0.00 0.00 18 1018.0
20260501231637 20 233 1.6 6.4 0.00 0.00 0.00 17 1018.0
20260501230617 20 273 3.2 4.8 0.00 0.00 0.00 17 1018.0
20260501225617 18 83 1.6 4.8 0.00 0.00 0.00 17 1018.1
20260501224616 20 275 1.6 3.2 0.00 0.00 0.00 17 1018.1
20260501223636 20 248 3.2 4.8 0.00 0.00 0.00 16 1018.3
20260501222617 20 255 3.2 6.4 0.00 0.00 0.00 19 1018.3
20260501221616 20 266 4.8 9.7 0.00 0.00 0.00 21 1018.4
20260501220637 20 259 3.2 9.7 0.00 0.00 0.00 21 1018.5
20260501215616 20 258 1.6 3.2 0.00 0.00 0.00 23 1018.7
20260501214616 19 116 1.6 3.2 0.00 0.00 0.00 23 1018.8
20260501213616 18 278 4.8 8.0 0.00 0.00 0.00 20 1018.9
20260501212616 19 251 3.2 8.0 0.00 0.00 0.00 20 1019.0
20260501211616 19 273 1.6 3.2 0.00 0.00 0.00 18 1019.0
20260501210616 19 267 3.2 8.0 0.00 0.00 0.00 18 1019.2